timestamp,surface_pressure_avg,surface_temp_avg,battery_voltage,lat,long
2022-08-01 00:09:00+00:00,330.2596,19.2,11.93,47.84626,-54.09684
2022-08-01 00:19:01+00:00,334.2413,19.3,11.93,47.84626,-54.09684
2022-08-01 00:29:01+00:00,341.2712,19.39,11.93,47.84626,-54.09684
2022-08-01 00:39:01+00:00,350.30800000000005,19.3,11.93,47.84626,-54.09684
2022-08-01 00:49:01+00:00,353.0546,19.3,11.93,47.84626,-54.09684
2022-08-01 00:59:01+00:00,349.0746,19.4,11.93,47.84626,-54.09684
2022-08-01 01:09:01+00:00,354.3663,19.42,11.93,47.84626,-54.09684
2022-08-01 01:19:00+00:00,359.8329,19.4,11.93,47.84626,-54.09684
2022-08-01 01:29:00+00:00,357.7697,19.4,11.93,47.84626,-54.09684
2022-08-01 01:39:00+00:00,356.5163,19.43,11.93,47.84626,-54.09684
2022-08-01 01:49:00+00:00,356.4479,19.43,11.93,47.84626,-54.09684
2022-08-01 01:59:00+00:00,359.5246,19.4,11.93,47.84626,-54.09684
2022-08-01 02:09:00+00:00,357.6163,19.4,11.93,47.84626,-54.09684
2022-08-01 02:19:00+00:00,356.5213,19.4,11.93,47.84626,-54.09684
2022-08-01 02:29:00+00:00,355.3112,19.4,11.93,47.84626,-54.09684
2022-08-01 02:39:00+00:00,354.0529,19.4,11.93,47.84626,-54.09684
2022-08-01 02:49:00+00:00,351.0179,19.4,11.93,47.84626,-54.09684
2022-08-01 02:59:00+00:00,346.5129,19.43,11.93,47.84626,-54.09684
2022-08-01 03:09:00+00:00,343.1646,19.46,11.93,47.84626,-54.09684
2022-08-01 03:19:00+00:00,341.3896,19.4,11.93,47.84626,-54.09684
2022-08-01 03:29:00+00:00,336.4480000000001,19.3,11.93,47.84626,-54.09684
2022-08-01 03:39:00+00:00,333.1930000000001,19.34,11.93,47.84626,-54.09684
2022-08-01 03:49:00+00:00,325.0964,19.37,11.93,47.84626,-54.09684
2022-08-01 03:59:00+00:00,321.1129,19.37,11.93,47.84626,-54.09684
2022-08-01 04:09:00+00:00,315.0114,19.3,11.93,47.84626,-54.09684
2022-08-01 04:19:00+00:00,304.9996,19.35,11.86,47.84626,-54.09684
2022-08-01 04:29:00+00:00,296.0797,19.39,11.86,47.84626,-54.09684
2022-08-01 04:39:00+00:00,292.0197,19.38,11.86,47.84626,-54.09684
2022-08-01 04:49:00+00:00,287.8564,19.37,11.86,47.84626,-54.09684
2022-08-01 04:59:00+00:00,278.188,19.4,11.86,47.84626,-54.09684
2022-08-01 05:09:00+00:00,271.3764,19.4,11.86,47.84626,-54.09684
2022-08-01 05:19:01+00:00,267.0231,19.4,11.86,47.84626,-54.09684
2022-08-01 05:29:01+00:00,261.3581,19.4,11.86,47.84626,-54.09684
2022-08-01 05:39:01+00:00,252.9347,19.4,11.86,47.84626,-54.09684
2022-08-01 05:49:01+00:00,244.7481,19.4,11.86,47.84626,-54.09684
2022-08-01 05:59:01+00:00,237.4981,19.4,11.86,47.84626,-54.09684
2022-08-01 06:09:01+00:00,231.4514,19.4,11.86,47.84626,-54.09684
2022-08-01 06:19:01+00:00,224.2314,19.4,11.86,47.84626,-54.09684
2022-08-01 06:29:01+00:00,217.3765,19.4,11.86,47.84626,-54.09684
2022-08-01 06:39:01+00:00,211.8681,19.4,11.86,47.84626,-54.09684
2022-08-01 06:49:01+00:00,206.0581,19.4,11.86,47.84626,-54.09684
2022-08-01 06:59:01+00:00,201.4781,19.4,11.86,47.84626,-54.09684
2022-08-01 07:09:01+00:00,195.7865,19.4,11.86,47.84626,-54.09684
2022-08-01 07:19:01+00:00,190.2965,19.4,11.86,47.84626,-54.09684
2022-08-01 07:29:01+00:00,188.4064,19.4,11.86,47.84626,-54.09684
2022-08-01 07:39:01+00:00,191.8565,19.4,11.86,47.84626,-54.09684
2022-08-01 07:49:01+00:00,193.6498,19.4,11.86,47.84626,-54.09684
2022-08-01 07:59:01+00:00,190.8781,19.4,11.86,47.84626,-54.09684
2022-08-01 08:09:01+00:00,195.3081,19.4,11.86,47.84626,-54.09684
2022-08-01 08:19:00+00:00,204.2548,19.4,11.86,47.84626,-54.09684
2022-08-01 08:29:00+00:00,205.0565,19.39,11.86,47.84626,-54.09684
2022-08-01 08:39:00+00:00,203.3614,19.4,11.86,47.84626,-54.09684
2022-08-01 08:49:00+00:00,209.5647,19.4,11.86,47.84626,-54.09684
2022-08-01 08:59:00+00:00,214.7115,19.39,11.86,47.84626,-54.09684
2022-08-01 09:09:00+00:00,215.3664,19.39,11.86,47.84626,-54.09684
2022-08-01 09:19:00+00:00,220.4281,19.39,11.86,47.84626,-54.09684
2022-08-01 09:29:00+00:00,225.4081,19.39,11.86,47.84626,-54.09684
2022-08-01 09:39:00+00:00,225.2164,19.38,11.86,47.84626,-54.09684
2022-08-01 09:49:00+00:00,229.7948,19.35,11.86,47.84626,-54.09684
2022-08-01 09:59:00+00:00,238.1048,19.33,11.86,47.84626,-54.09684
2022-08-01 10:09:00+00:00,237.3114,19.32,11.86,47.84626,-54.09684
2022-08-01 10:19:00+00:00,235.5947,19.3,11.86,47.84626,-54.09684
2022-08-01 10:29:00+00:00,243.0947,19.3,11.86,47.84626,-54.09684
2022-08-01 10:39:00+00:00,249.3681,19.3,11.86,47.84626,-54.09684
2022-08-01 10:49:00+00:00,250.0981,19.3,11.86,47.84626,-54.09684
2022-08-01 10:59:00+00:00,254.2598,19.3,11.86,47.84626,-54.09684
2022-08-01 11:09:00+00:00,265.468,19.3,11.86,47.84626,-54.09684
2022-08-01 11:19:00+00:00,269.7697,19.3,11.93,47.84626,-54.09684
2022-08-01 11:29:00+00:00,268.7281,19.27,11.93,47.84626,-54.09684
2022-08-01 11:39:00+00:00,277.6097,19.3,11.93,47.84626,-54.09684
2022-08-01 11:49:00+00:00,289.6931,19.3,11.93,47.84626,-54.09684
2022-08-01 11:59:00+00:00,292.553,19.26,11.93,47.84626,-54.09684
2022-08-01 12:09:00+00:00,296.638,19.29,11.93,47.84626,-54.09684
2022-08-01 12:19:01+00:00,307.6464,19.2,12.01,47.84626,-54.09684
2022-08-01 12:29:01+00:00,313.8063,19.18,12.01,47.84626,-54.09684
2022-08-01 12:39:01+00:00,317.3163,19.18,12.01,47.84626,-54.09684
2022-08-01 12:49:01+00:00,323.0746,19.17,12.01,47.84626,-54.09684
2022-08-01 12:59:01+00:00,329.4663,19.19,12.01,47.84626,-54.09684
2022-08-01 13:09:01+00:00,331.8130000000001,19.19,12.01,47.84626,-54.09684
2022-08-01 13:19:00+00:00,335.1462,19.2,12.09,47.84626,-54.09684
2022-08-01 13:29:00+00:00,340.288,19.2,12.09,47.84626,-54.09684
2022-08-01 13:39:00+00:00,339.2629,19.2,12.09,47.84626,-54.09684
2022-08-01 13:49:00+00:00,336.4012,19.2,12.09,47.84626,-54.09684
2022-08-01 13:59:00+00:00,337.7246,19.23,12.09,47.84626,-54.09684
2022-08-01 14:09:00+00:00,340.1213,19.26,12.09,47.84626,-54.09684
2022-08-01 14:19:01+00:00,338.3347,19.29,12.09,47.84626,-54.09684
2022-08-01 14:29:01+00:00,334.5696,19.33,12.09,47.84626,-54.09684
2022-08-01 14:39:01+00:00,334.7646,19.38,12.09,47.84626,-54.09684
2022-08-01 14:49:01+00:00,334.0396,19.4,12.09,47.84626,-54.09684
2022-08-01 14:59:01+00:00,329.2814,19.4,12.09,47.84626,-54.09684
2022-08-01 15:09:01+00:00,324.358,19.4,12.09,47.84626,-54.09684
2022-08-01 15:19:01+00:00,321.6896,19.4,12.17,47.84626,-54.09684
2022-08-01 15:29:01+00:00,322.4114,19.4,12.17,47.84626,-54.09684
2022-08-01 15:39:01+00:00,318.703,19.4,12.17,47.84626,-54.09684
2022-08-01 15:49:01+00:00,314.0213,19.43,12.17,47.84626,-54.09684
2022-08-01 15:59:01+00:00,311.0231,19.46,12.17,47.84626,-54.09684
2022-08-01 16:09:01+00:00,308.168,19.41,12.17,47.84626,-54.09684
2022-08-01 17:19:00+00:00,260.1947,19.4,12.09,47.84626,-54.09684
2022-08-01 17:29:00+00:00,252.2964,19.4,12.09,47.84626,-54.09684
2022-08-01 17:39:00+00:00,247.0114,19.38,12.09,47.84626,-54.09684
2022-08-01 17:49:00+00:00,237.9947,19.3,12.09,47.84626,-54.09684
2022-08-01 17:59:00+00:00,229.8048,19.39,12.09,47.84626,-54.09684
2022-08-01 18:09:00+00:00,226.5364,19.39,12.09,47.84626,-54.09684
2022-08-01 18:19:01+00:00,219.3298,19.4,12.09,47.84626,-54.09684
2022-08-01 18:29:01+00:00,210.7165,19.49,12.09,47.84626,-54.09684
2022-08-01 18:39:01+00:00,207.6448,19.52,12.09,47.84626,-54.09684
2022-08-01 18:49:01+00:00,205.7765,19.5,12.09,47.84626,-54.09684
2022-08-01 18:59:01+00:00,199.3865,19.3,12.09,47.84626,-54.09684
2022-08-01 19:09:01+00:00,193.2564,19.2,12.09,47.84626,-54.09684
2022-08-01 19:19:00+00:00,191.3414,19.1,12.01,47.84626,-54.09684
2022-08-01 19:29:00+00:00,190.1698,19.1,12.01,47.84626,-54.09684
2022-08-01 19:39:00+00:00,185.3148,19.03,12.01,47.84626,-54.09684
2022-08-01 19:49:00+00:00,180.5948,19.17,12.01,47.84626,-54.09684
2022-08-01 19:59:00+00:00,184.0215,19.22,12.01,47.84626,-54.09684
2022-08-01 20:09:00+00:00,189.4748,19.26,12.01,47.84626,-54.09684
2022-08-01 20:19:01+00:00,188.4698,19.3,12.01,47.84626,-54.09684
2022-08-01 20:29:01+00:00,190.0465,19.3,12.01,47.84626,-54.09684
2022-08-01 20:39:01+00:00,200.5497,19.3,12.01,47.84626,-54.09684
2022-08-01 20:49:01+00:00,205.2831,19.38,12.01,47.84626,-54.09684
2022-08-01 20:59:01+00:00,208.2281,19.45,12.01,47.84626,-54.09684
2022-08-01 21:09:01+00:00,214.7748,19.5,12.01,47.84626,-54.09684
2022-08-01 21:19:00+00:00,221.5698,19.58,12.01,47.84626,-54.09684
2022-08-01 21:29:00+00:00,223.4448,19.6,12.01,47.84626,-54.09684
2022-08-01 21:39:00+00:00,221.6681,19.67,12.01,47.84626,-54.09684
2022-08-01 21:49:00+00:00,225.8814,19.7,12.01,47.84626,-54.09684
2022-08-01 21:59:00+00:00,232.4031,19.7,12.01,47.84626,-54.09684
2022-08-01 22:09:00+00:00,236.9481,19.76,12.01,47.84626,-54.09684
2022-08-01 22:19:00+00:00,240.1681,19.79,11.93,47.84626,-54.09684
2022-08-01 22:29:00+00:00,246.0531,19.74,11.93,47.84626,-54.09684
2022-08-01 22:39:00+00:00,251.9614,19.7,11.93,47.84626,-54.09684
2022-08-01 22:49:00+00:00,257.7714,19.7,11.93,47.84626,-54.09684
2022-08-01 22:59:00+00:00,260.6548,19.7,11.93,47.84626,-54.09684
2022-08-01 23:09:00+00:00,263.0164,19.7,11.93,47.84626,-54.09684
2022-08-01 23:19:01+00:00,266.9848,19.72,11.93,47.84626,-54.09684
2022-08-01 23:29:01+00:00,274.0214,19.73,11.93,47.84626,-54.09684
2022-08-01 23:39:01+00:00,277.9897,19.72,11.93,47.84626,-54.09684
2022-08-01 23:49:01+00:00,279.738,19.74,11.93,47.84626,-54.09684
2022-08-01 23:59:01+00:00,284.0797,19.77,11.93,47.84626,-54.09684
